EDT,Max TemperatureF,Mean TemperatureF,Min TemperatureF,Max Dew PointF,MeanDew PointF,Min DewpointF,Max Humidity, Mean Humidity, Min Humidity, Max Sea Level PressureIn, Mean Sea Level PressureIn, Min Sea Level PressureIn, Max VisibilityMiles, Mean VisibilityMiles, Min VisibilityMiles, Max Wind SpeedMPH, Mean Wind SpeedMPH, Max Gust SpeedMPH,PrecipitationIn, CloudCover, Events, WindDirDegrees
2013-5-1,77,65,52,52,48,36,89,63,36,30.29,30.25,30.17,10,10,10,16,9,22,0.00,0,,123
2013-5-2,76,64,52,44,34,27,54,35,16,30.35,30.27,30.20,10,10,10,16,10,21,0.00,0,,119
2013-5-3,76,64,52,42,37,31,54,39,23,30.24,30.19,30.14,10,10,10,22,14,30,0.00,1,,128
2013-5-4,70,59,47,40,38,35,71,50,28,30.21,30.15,30.09,10,10,10,20,11,25,0.00,6,,122
2013-5-5,75,60,44,41,32,18,76,45,13,30.14,30.09,30.02,10,10,10,22,11,29,0.00,5,,118
2013-5-6,72,60,47,50,42,30,72,55,38,30.10,30.05,30.00,10,10,10,20,11,26,0.00,5,,118
2013-5-7,74,64,53,57,51,49,89,65,41,30.05,30.01,29.97,10,10,10,17,7,24,0.01,7,Rain,96
2013-5-8,70,63,55,55,53,51,86,72,58,30.01,29.97,29.93,10,10,3,17,6,21,0.05,8,Rain,57
2013-5-9,77,65,53,55,50,42,100,66,31,29.99,29.96,29.92,10,10,9,16,5,21,0.00,7,,310
2013-5-10,74,67,59,59,55,42,97,73,48,29.98,29.86,29.76,10,8,1,30,9,44,0.29,8,Rain-Thunderstorm,191
2013-5-11,61,53,44,59,46,42,100,89,77,29.86,29.82,29.75,10,6,1,28,9,38,0.20,8,Fog-Rain,267
2013-5-12,50,42,33,42,31,25,92,67,42,30.08,29.95,29.87,10,10,3,26,13,33,0.09,6,Rain,271
2013-5-13,51,40,29,36,27,21,92,63,34,30.20,30.13,30.05,10,10,10,20,7,25,T,4,Rain-Snow,293
2013-5-14,58,43,28,38,32,25,92,69,45,30.19,30.07,29.88,10,10,10,22,10,29,T,6,Rain,139
2013-5-15,84,67,50,57,50,36,72,53,33,29.86,29.76,29.72,10,10,10,29,10,38,0.01,5,Rain-Thunderstorm,226
2013-5-16,80,65,50,50,44,37,77,50,23,29.99,29.87,29.76,10,10,10,21,6,25,0.00,4,,322
2013-5-17,79,62,44,45,42,38,89,57,25,30.14,30.08,30.00,10,10,10,15,6,17,0.00,4,,50
2013-5-18,83,68,52,59,47,42,78,53,28,30.16,30.10,30.04,10,10,10,14,7,17,0.00,5,,105
2013-5-19,80,69,58,61,59,56,90,72,54,30.10,30.03,29.97,10,10,8,14,9,21,0.00,4,,136
2013-5-20,86,73,59,66,63,58,97,73,48,30.03,29.97,29.89,10,10,7,13,7,20,0.00,3,,173
2013-5-21,86,77,67,67,64,59,93,68,43,29.92,29.87,29.80,10,8,4,18,8,25,0.00,6,,198
2013-5-22,86,77,67,63,60,54,81,61,40,29.85,29.79,29.72,10,10,10,24,10,36,T,6,Rain-Thunderstorm,210
2013-5-23,75,59,43,63,57,42,93,75,57,29.96,29.81,29.75,10,8,2,24,11,29,0.34,7,Rain-Thunderstorm,259
2013-5-24,45,39,32,41,34,29,96,79,62,30.31,30.20,29.99,10,10,4,22,12,28,T,7,Rain,328
2013-5-25,61,46,30,38,31,28,100,68,36,30.35,30.31,30.27,10,10,8,22,8,28,0.00,3,,315
2013-5-26,64,49,33,39,33,29,96,62,27,30.32,30.28,30.25,10,10,10,20,6,29,0.00,3,,320
2013-5-27,62,48,33,46,38,32,96,66,36,30.29,30.23,30.11,10,10,9,12,6,16,0.03,7,Rain,129
2013-5-28,80,66,51,65,58,47,96,75,54,30.09,30.01,29.93,10,9,3,18,9,26,0.39,7,Rain-Thunderstorm,176
2013-5-29,86,78,69,62,59,57,68,56,44,30.06,30.01,29.95,10,10,10,21,11,26,0.00,5,,215
2013-5-30,87,77,67,65,61,58,81,59,37,30.16,30.11,30.06,10,10,10,16,8,23,0.00,5,,200
2013-5-31,88,77,66,65,62,60,93,67,40,30.09,30.04,29.96,10,10,9,24,9,29,0.06,4,Rain,195